Location: Unspecified
(44.0704°N, 88.6889°W)
Time: 05:05:01
(UTC+02:00)

CZ-3 Stage 3 - Visible Passes

Search period start: 24 September 2017 00:00
Search period end: 04 October 2017 00:00
Orbit: 426 x 34772 km, 31.0° (Epoch: 22 September)

Date Brightness Start Highest point End Pass type
(mag) Time Alt. Az. Time Alt. Az. Time Alt. Az.
24 Sep 7.8 20:54:55 10° W 21:37:19 36° SW 01:55:46 10° SW visible
27 Sep 7.8 20:45:55 10° W 21:27:55 35° SW 01:40:13 10° SW visible
30 Sep 7.8 20:36:55 10° W 21:18:31 34° SW 01:24:36 10° SW visible
02 Oct 4.7 13:21:11 10° SSW 13:25:40 31° SSE 13:42:37 10° E visible
